TimeCDT,TemperatureF,Dew PointF,Humidity,Sea Level PressureIn,VisibilityMPH,Wind Direction,Wind SpeedMPH,Gust SpeedMPH,PrecipitationIn,Events,Conditions,WindDirDegrees,DateUTC
12:53 AM,73.0,73.0,100,29.97,10.0,NE,3.5,-,N/A,,Mostly Cloudy,40,2013-08-05 05:53:00
1:53 AM,73.0,72.0,96,29.96,10.0,East,4.6,-,N/A,,Partly Cloudy,80,2013-08-05 06:53:00
2:53 AM,73.0,72.0,96,29.95,10.0,East,3.5,-,N/A,,Overcast,90,2013-08-05 07:53:00
3:53 AM,73.0,72.0,96,29.95,10.0,Calm,Calm,-,N/A,,Mostly Cloudy,0,2013-08-05 08:53:00
4:53 AM,72.0,72.0,100,29.94,9.0,Calm,Calm,-,N/A,,Clear,0,2013-08-05 09:53:00
5:53 AM,72.0,71.1,97,29.94,6.0,Calm,Calm,-,N/A,,Partly Cloudy,0,2013-08-05 10:53:00
6:18 AM,71.6,71.6,100,29.97,6.0,Calm,Calm,-,N/A,,Mostly Cloudy,0,2013-08-05 11:18:00
6:51 AM,71.6,71.6,100,29.97,6.0,SE,3.5,-,N/A,,Mostly Cloudy,130,2013-08-05 11:51:00
6:53 AM,72.0,72.0,100,29.95,6.0,Calm,Calm,-,N/A,,Mostly Cloudy,0,2013-08-05 11:53:00
7:53 AM,73.9,73.0,97,29.94,7.0,Variable,3.5,-,N/A,,Scattered Clouds,0,2013-08-05 12:53:00
8:53 AM,78.1,73.9,87,29.92,9.0,South,5.8,-,N/A,,Mostly Cloudy,170,2013-08-05 13:53:00
9:53 AM,79.0,75.0,88,29.91,10.0,South,4.6,-,N/A,,Mostly Cloudy,190,2013-08-05 14:53:00
10:53 AM,84.9,75.0,72,29.89,10.0,SSW,9.2,-,N/A,,Partly Cloudy,200,2013-08-05 15:53:00
11:53 AM,88.0,75.9,67,29.88,10.0,SW,9.2,-,N/A,,Mostly Cloudy,220,2013-08-05 16:53:00
12:53 PM,91.0,75.9,61,29.87,10.0,SW,10.4,-,N/A,,Mostly Cloudy,220,2013-08-05 17:53:00
1:53 PM,93.9,77.0,58,29.86,10.0,SSW,9.2,-,N/A,,Partly Cloudy,210,2013-08-05 18:53:00
2:53 PM,95.0,77.0,56,29.84,10.0,SSW,5.8,-,N/A,,Partly Cloudy,200,2013-08-05 19:53:00
3:53 PM,95.0,77.0,56,29.83,10.0,SSW,6.9,-,N/A,,Partly Cloudy,200,2013-08-05 20:53:00
4:53 PM,95.0,79.0,60,29.81,10.0,Variable,3.5,-,N/A,,Partly Cloudy,0,2013-08-05 21:53:00
5:53 PM,93.9,78.1,60,29.79,10.0,Calm,Calm,-,N/A,,Partly Cloudy,0,2013-08-05 22:53:00
6:53 PM,91.9,78.1,64,29.78,10.0,South,3.5,-,N/A,,Clear,180,2013-08-05 23:53:00
7:53 PM,84.9,81.0,88,29.79,10.0,Calm,Calm,-,N/A,,Clear,0,2013-08-06 00:53:00
8:53 PM,82.0,80.1,94,29.78,10.0,SSW,4.6,-,N/A,,Clear,200,2013-08-06 01:53:00
9:53 PM,82.0,79.0,90,29.80,10.0,SSW,3.5,-,N/A,,Clear,200,2013-08-06 02:53:00
10:53 PM,82.9,77.0,82,29.79,10.0,Calm,Calm,-,N/A,,Clear,0,2013-08-06 03:53:00
11:53 PM,84.9,73.9,69,29.79,10.0,SSW,6.9,-,N/A,,Clear,200,2013-08-06 04:53:00